EWG4NK EDLW-EDDF

Flight info

Callsign EWG4NK
Flight time 0h 28m
Altitude 20000
Route GMH8Q GMH DCT COL T911 ROLIS ROLIS5A
Aircraft A320/M-SDE3FGHIRWY/LB1

Departure

Time 2026-05-06 20:46
Airport Dortmund Airport (EDLW)

Arrival

Time 2026-05-06 21:14
Airport Frankfurt Main Airport (EDDF)
Time Latitude Longitude Altitude Speed Heading
2026-05-06 20:30 51.51585 7.61284 424 ft 0 kts 332°
2026-05-06 20:41 51.51587 7.61282 434 ft 3 kts 332°
2026-05-06 20:41 51.51628 7.61237 434 ft 8 kts 307°
2026-05-06 20:41 51.51617 7.61149 428 ft 8 kts 240°
2026-05-06 20:41 51.51588 7.61060 426 ft 12 kts 245°
2026-05-06 20:42 51.51542 7.60911 428 ft 17 kts 243°
2026-05-06 20:42 51.51473 7.60711 418 ft 16 kts 241°
2026-05-06 20:42 51.51420 7.60562 423 ft 4 kts 239°
2026-05-06 20:42 51.51420 7.60561 423 ft 0 kts 239°
2026-05-06 20:44 51.51416 7.60551 416 ft 4 kts 239°
2026-05-06 20:44 51.51386 7.60468 420 ft 13 kts 240°
2026-05-06 20:44 51.51363 7.60329 421 ft 13 kts 287°
2026-05-06 20:44 51.51447 7.60236 415 ft 18 kts 339°
2026-05-06 20:45 51.51524 7.60351 414 ft 19 kts 60°
2026-05-06 20:45 51.51605 7.60576 414 ft 60 kts 60°
2026-05-06 20:45 51.51928 7.61493 412 ft 126 kts 60°
2026-05-06 20:45 51.52602 7.63402 853 ft 153 kts 60°
2026-05-06 20:46 51.53144 7.64985 1327 ft 171 kts 58°
2026-05-06 20:46 51.53558 7.66161 1532 ft 186 kts 58°
2026-05-06 20:46 51.54238 7.68073 1887 ft 207 kts 58°
2026-05-06 20:46 51.54983 7.70158 2286 ft 230 kts 58°
2026-05-06 20:47 51.55805 7.72492 2913 ft 246 kts 63°
2026-05-06 20:47 51.56125 7.75225 3708 ft 259 kts 97°
2026-05-06 20:47 51.55359 7.77861 4593 ft 269 kts 132°
2026-05-06 20:47 51.53763 7.79444 5413 ft 277 kts 166°
2026-05-06 20:48 51.51836 7.79424 6254 ft 281 kts 194°
2026-05-06 20:48 51.49966 7.78438 7093 ft 283 kts 204°
2026-05-06 20:48 51.48156 7.77148 7928 ft 287 kts 204°
2026-05-06 20:48 51.46280 7.75987 8750 ft 291 kts 201°
2026-05-06 20:49 51.44306 7.75204 9552 ft 296 kts 185°
2026-05-06 20:49 51.42242 7.75293 10300 ft 300 kts 170°
2026-05-06 20:49 51.40216 7.76179 10934 ft 308 kts 160°
2026-05-06 20:49 51.38113 7.77375 11156 ft 332 kts 160°
2026-05-06 20:50 51.35893 7.78629 11331 ft 355 kts 161°
2026-05-06 20:50 51.33408 7.79273 11614 ft 371 kts 182°
2026-05-06 20:50 51.30840 7.78613 12195 ft 376 kts 193°
2026-05-06 20:50 51.28280 7.77687 12914 ft 379 kts 193°
2026-05-06 20:51 51.25699 7.76734 13621 ft 381 kts 193°
2026-05-06 20:51 51.23104 7.75767 14250 ft 384 kts 194°
2026-05-06 20:51 51.20493 7.74795 14871 ft 387 kts 194°
2026-05-06 20:51 51.17857 7.73824 15501 ft 389 kts 194°
2026-05-06 20:52 51.15207 7.72853 16131 ft 392 kts 194°
2026-05-06 20:52 51.12541 7.71876 16758 ft 394 kts 194°
2026-05-06 20:52 51.09871 7.70896 17377 ft 397 kts 194°
2026-05-06 20:52 51.07174 7.69903 17991 ft 399 kts 194°
2026-05-06 20:53 51.04460 7.68908 18581 ft 401 kts 194°
2026-05-06 20:53 51.01737 7.67912 19102 ft 403 kts 194°
2026-05-06 20:53 50.98998 7.66912 19608 ft 405 kts 194°
2026-05-06 20:53 50.96244 7.65907 19833 ft 406 kts 194°
2026-05-06 20:54 50.93457 7.64893 19883 ft 418 kts 194°
2026-05-06 20:54 50.90570 7.63841 19886 ft 431 kts 194°
2026-05-06 20:54 50.87620 7.62768 19883 ft 437 kts 194°
2026-05-06 20:54 50.84653 7.61696 19882 ft 438 kts 194°
2026-05-06 20:55 50.81645 7.60872 19881 ft 440 kts 186°
2026-05-06 20:55 50.78587 7.60835 19882 ft 441 kts 176°
2026-05-06 20:55 50.75557 7.61605 19704 ft 437 kts 167°
2026-05-06 20:55 50.72699 7.63151 19427 ft 432 kts 158°
2026-05-06 20:56 50.69945 7.64996 18752 ft 428 kts 158°
2026-05-06 20:56 50.67211 7.66829 18088 ft 425 kts 158°
2026-05-06 20:56 50.64499 7.68640 17396 ft 421 kts 158°
2026-05-06 20:56 50.61824 7.70421 16790 ft 415 kts 159°
2026-05-06 20:57 50.59176 7.72177 16228 ft 410 kts 159°
2026-05-06 20:57 50.56561 7.73907 15656 ft 406 kts 159°
2026-05-06 20:57 50.53974 7.75653 15126 ft 406 kts 155°
2026-05-06 20:57 50.51659 7.78175 14544 ft 408 kts 137°
2026-05-06 20:58 50.49915 7.81675 13919 ft 407 kts 124°
2026-05-06 20:58 50.48371 7.85394 13245 ft 405 kts 123°
2026-05-06 20:58 50.46839 7.89084 12596 ft 402 kts 123°
2026-05-06 20:58 50.45338 7.92745 12020 ft 396 kts 124°
2026-05-06 20:59 50.43877 7.96386 11437 ft 391 kts 123°
2026-05-06 20:59 50.42434 7.99986 10978 ft 388 kts 123°
2026-05-06 20:59 50.41017 8.03521 10850 ft 388 kts 123°
2026-05-06 20:59 50.39558 8.07149 10866 ft 389 kts 123°
2026-05-06 21:00 50.38115 8.10737 10876 ft 389 kts 123°
2026-05-06 21:00 50.36695 8.14273 10872 ft 389 kts 124°
2026-05-06 21:00 50.35249 8.17863 10870 ft 390 kts 124°
2026-05-06 21:00 50.33802 8.21463 10877 ft 390 kts 124°
2026-05-06 21:01 50.32356 8.25056 10881 ft 390 kts 124°
2026-05-06 21:01 50.30908 8.28650 10873 ft 390 kts 124°
2026-05-06 21:01 50.29458 8.32245 10860 ft 390 kts 124°
2026-05-06 21:01 50.28021 8.35844 10885 ft 390 kts 124°
2026-05-06 21:02 50.26599 8.39416 10478 ft 384 kts 124°
2026-05-06 21:02 50.25204 8.42928 10128 ft 373 kts 124°
2026-05-06 21:02 50.23868 8.46301 9989 ft 356 kts 124°
2026-05-06 21:02 50.22596 8.49522 9867 ft 341 kts 124°
2026-05-06 21:03 50.21377 8.52613 9741 ft 327 kts 124°
2026-05-06 21:03 50.20215 8.55576 9618 ft 314 kts 124°
2026-05-06 21:03 50.19187 8.58506 9478 ft 304 kts 111°
2026-05-06 21:03 50.18885 8.61714 9252 ft 299 kts 89°
2026-05-06 21:04 50.19073 8.64939 8895 ft 297 kts 84°
2026-05-06 21:04 50.19325 8.68123 8504 ft 295 kts 84°
2026-05-06 21:04 50.19582 8.71296 8114 ft 294 kts 84°
2026-05-06 21:04 50.19835 8.74410 7862 ft 292 kts 84°
2026-05-06 21:05 50.20090 8.77555 7856 ft 293 kts 84°
2026-05-06 21:05 50.20345 8.80715 7858 ft 293 kts 84°
2026-05-06 21:05 50.20600 8.83871 7859 ft 293 kts 84°
2026-05-06 21:05 50.20853 8.87018 7666 ft 291 kts 84°
2026-05-06 21:06 50.21106 8.90153 7258 ft 290 kts 84°
2026-05-06 21:06 50.21357 8.93263 6862 ft 288 kts 84°
2026-05-06 21:06 50.21282 8.96333 6500 ft 280 kts 108°
2026-05-06 21:06 50.20402 8.98958 5874 ft 271 kts 135°
2026-05-06 21:07 50.18863 9.00502 5224 ft 262 kts 169°
2026-05-06 21:07 50.17085 9.00426 5017 ft 260 kts 201°
2026-05-06 21:07 50.15593 8.98916 4995 ft 258 kts 231°
2026-05-06 21:07 50.14751 8.96511 4998 ft 247 kts 250°
2026-05-06 21:08 50.14195 8.94082 4995 ft 231 kts 251°
2026-05-06 21:08 50.13660 8.91740 4998 ft 227 kts 250°
2026-05-06 21:08 50.13136 8.89499 4998 ft 212 kts 250°
2026-05-06 21:08 50.12648 8.87422 4998 ft 196 kts 250°
2026-05-06 21:09 50.12191 8.85479 4934 ft 188 kts 250°
2026-05-06 21:09 50.11749 8.83602 4728 ft 187 kts 250°
2026-05-06 21:09 50.11297 8.81681 4473 ft 186 kts 251°
2026-05-06 21:09 50.10856 8.79814 4208 ft 186 kts 251°
2026-05-06 21:10 50.10411 8.77925 3962 ft 185 kts 251°
2026-05-06 21:10 50.09967 8.76047 3691 ft 185 kts 252°
2026-05-06 21:10 50.09518 8.74148 3404 ft 185 kts 252°
2026-05-06 21:10 50.09075 8.72273 3134 ft 184 kts 252°
2026-05-06 21:11 50.08641 8.70444 2862 ft 180 kts 252°
2026-05-06 21:11 50.08209 8.68620 2616 ft 179 kts 252°
2026-05-06 21:11 50.07783 8.66827 2378 ft 168 kts 253°
2026-05-06 21:11 50.07397 8.65206 2124 ft 152 kts 252°
2026-05-06 21:12 50.07047 8.63731 1910 ft 141 kts 253°
2026-05-06 21:12 50.06713 8.62326 1716 ft 136 kts 253°
2026-05-06 21:12 50.06387 8.60952 1507 ft 135 kts 253°
2026-05-06 21:12 50.06063 8.59589 1310 ft 134 kts 252°
2026-05-06 21:13 50.05738 8.58224 1105 ft 135 kts 251°
2026-05-06 21:13 50.05411 8.56855 920 ft 134 kts 251°
2026-05-06 21:13 50.05085 8.55486 686 ft 135 kts 251°
2026-05-06 21:13 50.04759 8.54124 511 ft 134 kts 251°
2026-05-06 21:14 50.04440 8.52780 361 ft 130 kts 250°
2026-05-06 21:14 50.04176 8.51656 333 ft 86 kts 250°
2026-05-06 21:14 50.04039 8.51150 327 ft 28 kts 236°
2026-05-06 21:14 50.03912 8.50923 326 ft 23 kts 219°
2026-05-06 21:15 50.03820 8.50848 332 ft 13 kts 179°
2026-05-06 21:15 50.03786 8.50918 334 ft 7 kts 83°
2026-05-06 21:15 50.03799 8.50991 330 ft 10 kts 72°
2026-05-06 21:15 50.03828 8.51126 334 ft 16 kts 70°
2026-05-06 21:16 50.03877 8.51330 335 ft 24 kts 69°
2026-05-06 21:16 50.03936 8.51573 335 ft 24 kts 69°
2026-05-06 21:16 50.03997 8.51822 333 ft 25 kts 70°
2026-05-06 21:16 50.04057 8.52078 339 ft 25 kts 70°
2026-05-06 21:17 50.04118 8.52332 349 ft 25 kts 70°
2026-05-06 21:17 50.04175 8.52570 352 ft 19 kts 69°
2026-05-06 21:17 50.04218 8.52750 358 ft 16 kts 70°
2026-05-06 21:17 50.04253 8.52897 358 ft 13 kts 70°
2026-05-06 21:18 50.04281 8.53016 355 ft 12 kts 69°
2026-05-06 21:18 50.04315 8.53161 366 ft 16 kts 69°
2026-05-06 21:18 50.04354 8.53319 367 ft 13 kts 69°
2026-05-06 21:18 50.04376 8.53413 373 ft 8 kts 70°
2026-05-06 21:19 50.04395 8.53508 375 ft 11 kts 82°
2026-05-06 21:19 50.04405 8.53663 375 ft 18 kts 85°
2026-05-06 21:19 50.04416 8.53848 375 ft 16 kts 84°
2026-05-06 21:19 50.04427 8.54016 375 ft 15 kts 84°
2026-05-06 21:20 50.04440 8.54210 375 ft 22 kts 83°
2026-05-06 21:20 50.04452 8.54372 373 ft 24 kts 84°
2026-05-06 21:20 50.04369 8.54714 361 ft 29 kts 141°
2026-05-06 21:20 50.04170 8.54852 354 ft 33 kts 160°
2026-05-06 21:21 50.04045 8.54923 353 ft 9 kts 159°
2026-05-06 21:21 50.04014 8.54967 355 ft 4 kts 107°
2026-05-06 21:21 50.04016 8.55002 357 ft 3 kts 74°
2026-05-06 21:21 50.04032 8.55073 360 ft 9 kts 70°
2026-05-06 21:22 50.04058 8.55180 357 ft 13 kts 70°
2026-05-06 21:22 50.04097 8.55347 357 ft 20 kts 70°
2026-05-06 21:22 50.04153 8.55580 353 ft 25 kts 69°
2026-05-06 21:22 50.04215 8.55837 358 ft 26 kts 70°
2026-05-06 21:23 50.04279 8.56102 358 ft 27 kts 69°
2026-05-06 21:23 50.04337 8.56348 358 ft 21 kts 70°
2026-05-06 21:23 50.04386 8.56560 362 ft 20 kts 70°
2026-05-06 21:23 50.04433 8.56755 360 ft 18 kts 69°
2026-05-06 21:24 50.04470 8.56856 359 ft 8 kts 32°
2026-05-06 21:24 50.04519 8.56878 359 ft 8 kts 13°
2026-05-06 21:24 50.04592 8.56904 363 ft 14 kts 13°
2026-05-06 21:24 50.04676 8.56950 359 ft 12 kts 25°
2026-05-06 21:25 50.04748 8.57000 362 ft 11 kts 24°
2026-05-06 21:25 50.04809 8.57044 358 ft 9 kts 25°
2026-05-06 21:25 50.04839 8.57100 357 ft 6 kts 97°
2026-05-06 21:25 50.04824 8.57149 362 ft 4 kts 114°
2026-05-06 21:26 50.04818 8.57167 358 ft 0 kts 115°
2026-05-06 21:26 50.04817 8.57173 359 ft 1 kts 115°
2026-05-06 21:26 50.04815 8.57179 360 ft 0 kts 115°
2026-05-06 21:26 50.04814 8.57180 360 ft 0 kts 115°